Location: Rounton
(54.4000°N, 1.3500°W)
Time: 03:56:52
(UTC+00:00)

Vanguard 1 - Pass Details

Date: 06 December 2021
Orbit: 652 x 3830 km, 34.2° (Epoch: 17 January)

Event Time Altitude Azimuth Distance (km) Brightness Sun altitude
Exits shadow 03:55:23 34° 214° (SW) 4,729 13.1 -35.6°
Maximum altitude 03:57:35 35° 204° (SSW) 4,581 13.1 -35.3°
Drops below altitude 10° 04:11:43 10° 146° (SE) 5,203 14.0 -33.3°
Sets 04:15:30 0° 137° (SE) 5,810 14.5 -32.7°
